Weather History for KRZL - March, 2013

Change the Weather History Date:

Thursday, March 7, 2013

  Actual Average (KVPZ) Record (KVPZ)
Temperature  
Mean Temperature 29 °F 34 °F  
Max Temperature 35 °F 43 °F 76 °F (2000)
Min Temperature 21 °F 26 °F -6 °F (1943)
Degree Days  
Heating Degree Days 36 31  
Month to date heating degree days 222  
Since 1 July heating degree days 4954  
Cooling Degree Days 0 0  
Month to date cooling degree days 0  
Year to date cooling degree days 0  
Moisture  
Dew Point 27 °F    
Average Humidity 86    
Maximum Humidity 100    
Minimum Humidity 60    
Precipitation  
Precipitation 0.00 in 0.07 in 1.18 in (1995)
Month to date precipitation 0.54  
Year to date precipitation 3.71  
Sea Level Pressure  
Sea Level Pressure 30.37 in    
Wind  
Wind Speed 5 mph (West)    
Max Wind Speed 8 mph    
Max Gust Speed -    
Visibility 9 miles    
Events      
T = Trace of Precipitation, MM = Missing Value Source: NWS Daily Summary

Daily Weather History Graph

Daily Weather History Graph

Search for Another Location

Airport or City:

Trip Planner

Search our weather history database for the weather conditions in past years. The results will help you decide how hot, cold, wet, or windy it might be!

Date:

Astronomy

Mar. 07, 2013 Rise Set
Actual Time 6:13 AM CST 5:46 PM CST
Civil Twilight 5:45 AM CST 6:14 PM CST
Nautical Twilight 5:13 AM CST 6:46 PM CST
Astronomical Twilight 4:41 AM CST 7:18 PM CST
Moon 3:14 AM CST (3/7) 1:32 PM CST (3/7)
Length of Visible Light 12h 28m
Length of Day
11h 33m
Waning Crescent, 20% of the Moon is Illuminated
Mar 7
Waning Crescent
Mar 11
New
Mar 19
First Quarter
Mar 27
Full
Apr 2
Last Quarter

Hourly Weather History & Observations

Time (CST) Temp. Windchill Dew Point Humidity Pressure Visibility Wind Dir Wind Speed Gust Speed Precip Events Conditions
12:15 AM 30.2 °F 24.3 °F 28.4 °F 93% 30.28 in 10.0 mi WNW 5.8 mph - N/A   Overcast
12:35 AM 30.2 °F 25.4 °F 28.4 °F 93% 30.29 in 7.0 mi West 4.6 mph - N/A   Overcast
12:55 AM 30.2 °F 23.4 °F 28.4 °F 93% 30.29 in 7.0 mi West 6.9 mph - N/A   Overcast
1:15 AM 30.2 °F 24.3 °F 28.4 °F 93% 30.30 in 10.0 mi West 5.8 mph - N/A   Overcast
1:35 AM 30.2 °F 23.4 °F 28.4 °F 93% 30.30 in 10.0 mi West 6.9 mph - N/A   Overcast
1:55 AM 30.2 °F 24.3 °F 28.4 °F 93% 30.30 in 10.0 mi WNW 5.8 mph - N/A   Overcast
2:15 AM 30.2 °F 23.4 °F 28.4 °F 93% 30.31 in 10.0 mi West 6.9 mph - N/A   Overcast
2:35 AM 30.2 °F 22.6 °F 28.4 °F 93% 30.31 in 10.0 mi WNW 8.1 mph - N/A   Overcast
2:55 AM 30.2 °F 24.3 °F 28.4 °F 93% 30.31 in 10.0 mi WNW 5.8 mph - N/A   Overcast
3:15 AM 30.2 °F 24.3 °F 28.4 °F 93% 30.32 in 7.0 mi WNW 5.8 mph - N/A   Overcast
3:35 AM 30.2 °F 22.6 °F 28.4 °F 93% 30.32 in 7.0 mi West 8.1 mph - N/A   Overcast
3:55 AM 30.2 °F 25.4 °F 28.4 °F 93% 30.33 in 10.0 mi WNW 4.6 mph - N/A   Overcast
4:15 AM 30.2 °F 24.3 °F 28.4 °F 93% 30.33 in 10.0 mi WNW 5.8 mph - N/A   Overcast
4:35 AM 30.2 °F 25.4 °F 28.4 °F 93% 30.33 in 10.0 mi WNW 4.6 mph - N/A   Overcast
4:55 AM 30.2 °F 26.7 °F 28.4 °F 93% 30.33 in 10.0 mi WNW 3.5 mph - N/A   Overcast
5:15 AM 30.2 °F 25.4 °F 28.4 °F 93% 30.34 in 7.0 mi WNW 4.6 mph - N/A   Overcast
5:35 AM 30.2 °F 25.4 °F 28.4 °F 93% 30.34 in 7.0 mi WNW 4.6 mph - N/A   Overcast
5:55 AM 30.2 °F 26.7 °F 28.4 °F 93% 30.34 in 7.0 mi WNW 3.5 mph - N/A   Overcast
6:15 AM 30.2 °F 24.3 °F 28.4 °F 93% 30.35 in 7.0 mi West 5.8 mph - N/A   Overcast
6:35 AM 28.4 °F 23.3 °F 28.4 °F 100% 30.35 in 7.0 mi West 4.6 mph - N/A   Overcast
6:55 AM 30.2 °F 25.4 °F 28.4 °F 93% 30.36 in 7.0 mi West 4.6 mph - N/A   Overcast
7:15 AM 30.2 °F 25.4 °F 28.4 °F 93% 30.36 in 7.0 mi West 4.6 mph - N/A   Overcast
7:35 AM 30.2 °F 25.4 °F 28.4 °F 93% 30.37 in 7.0 mi WNW 4.6 mph - N/A   Overcast
7:55 AM 30.2 °F - 28.4 °F 93% 30.38 in 7.0 mi Calm Calm - N/A   Overcast
8:15 AM 30.2 °F 26.7 °F 28.4 °F 93% 30.38 in 7.0 mi West 3.5 mph - N/A   Overcast
8:35 AM 32.0 °F 27.5 °F 28.4 °F 87% 30.38 in 10.0 mi West 4.6 mph - N/A   Overcast
8:55 AM 32.0 °F - 28.4 °F 87% 30.38 in 10.0 mi Calm Calm - N/A   Overcast
9:15 AM 32.0 °F - 28.4 °F 87% 30.38 in 10.0 mi Calm Calm - N/A   Overcast
9:35 AM 32.0 °F 28.7 °F 30.2 °F 93% 30.39 in 7.0 mi WSW 3.5 mph - N/A   Overcast
9:55 AM 32.0 °F 27.5 °F 30.2 °F 93% 30.39 in 10.0 mi West 4.6 mph - N/A   Overcast
10:15 AM 33.8 °F 29.6 °F 30.2 °F 87% 30.39 in 10.0 mi West 4.6 mph - N/A   Overcast
10:35 AM 33.8 °F 30.8 °F 30.2 °F 87% 30.39 in 10.0 mi WSW 3.5 mph - N/A   Overcast
10:55 AM 33.8 °F 29.6 °F 30.2 °F 87% 30.40 in 10.0 mi West 4.6 mph - N/A   Overcast
11:15 AM 33.8 °F 28.6 °F 30.2 °F 87% 30.40 in 10.0 mi WSW 5.8 mph - N/A   Overcast
11:35 AM 33.8 °F 29.6 °F 30.2 °F 87% 30.39 in 10.0 mi West 4.6 mph - N/A   Overcast
11:55 AM 33.8 °F 30.8 °F 28.4 °F 81% 30.38 in 10.0 mi WSW 3.5 mph - N/A   Overcast
12:15 PM 35.6 °F 32.8 °F 28.4 °F 75% 30.38 in 10.0 mi WSW 3.5 mph - N/A   Overcast
12:35 PM 35.6 °F 31.7 °F 28.4 °F 75% 30.39 in 10.0 mi West 4.6 mph - N/A   Overcast
12:55 PM 35.6 °F 32.8 °F 28.4 °F 75% 30.38 in 10.0 mi West 3.5 mph - N/A   Overcast
1:15 PM 35.6 °F 32.8 °F 23.0 °F 60% 30.38 in 10.0 mi WSW 3.5 mph - N/A   Overcast
1:35 PM 35.6 °F 32.8 °F 26.6 °F 70% 30.37 in 10.0 mi WSW 3.5 mph - N/A   Overcast
1:55 PM 35.6 °F 32.8 °F 24.8 °F 65% 30.37 in 10.0 mi West 3.5 mph - N/A   Overcast
2:15 PM 35.6 °F 31.7 °F 28.4 °F 75% 30.37 in 10.0 mi West 4.6 mph - N/A   Overcast
2:35 PM 35.6 °F 31.7 °F 26.6 °F 70% 30.37 in 10.0 mi West 4.6 mph - N/A   Overcast
2:55 PM 35.6 °F 32.8 °F 26.6 °F 70% 30.37 in 10.0 mi WSW 3.5 mph - N/A   Overcast
3:15 PM 35.6 °F - 26.6 °F 70% 30.37 in 10.0 mi Calm Calm - N/A   Overcast
3:35 PM 35.6 °F 31.7 °F 26.6 °F 70% 30.38 in 10.0 mi WSW 4.6 mph - N/A   Overcast
3:55 PM 33.8 °F 29.6 °F 26.6 °F 75% 30.38 in 10.0 mi WSW 4.6 mph - N/A   Overcast
4:15 PM 33.8 °F 29.6 °F 26.6 °F 75% 30.38 in 10.0 mi WSW 4.6 mph - N/A   Overcast
4:35 PM 33.8 °F 30.8 °F 26.6 °F 75% 30.39 in 10.0 mi SW 3.5 mph - N/A   Overcast
4:55 PM 33.8 °F - 26.6 °F 75% 30.39 in 10.0 mi Calm Calm - N/A   Overcast
5:15 PM 33.8 °F 30.8 °F 28.4 °F 81% 30.40 in 10.0 mi West 3.5 mph - N/A   Overcast
5:35 PM 33.8 °F - 28.4 °F 81% 30.39 in 10.0 mi Calm Calm - N/A   Overcast
5:55 PM 33.8 °F 29.6 °F 26.6 °F 75% 30.39 in 10.0 mi SW 4.6 mph - N/A   Overcast
7:35 PM 32.0 °F - 26.6 °F 80% 30.40 in 10.0 mi Calm Calm - N/A   Clear
7:55 PM 32.0 °F - 26.6 °F 80% 30.40 in 10.0 mi Calm Calm - N/A   Scattered Clouds
8:15 PM 30.2 °F - 26.6 °F 86% 30.39 in 10.0 mi Calm Calm - N/A   Clear
8:35 PM 28.4 °F 23.3 °F 23.0 °F 80% 30.40 in 10.0 mi NW 4.6 mph - N/A   Clear
8:55 PM 30.2 °F 26.7 °F 26.6 °F 86% 30.40 in 10.0 mi WNW 3.5 mph - N/A   Clear
9:15 PM 28.4 °F 24.6 °F 26.6 °F 93% 30.40 in 10.0 mi WNW 3.5 mph - N/A   Scattered Clouds
9:35 PM 28.4 °F 24.6 °F 26.6 °F 93% 30.40 in 10.0 mi NW 3.5 mph - N/A   Clear
9:55 PM 28.4 °F 24.6 °F 26.6 °F 93% 30.41 in 10.0 mi NW 3.5 mph - N/A   Clear
10:15 PM 24.8 °F - 23.0 °F 93% 30.41 in 7.0 mi Calm Calm - N/A   Clear
10:35 PM 24.8 °F - 23.0 °F 93% 30.41 in 7.0 mi Calm Calm - N/A   Clear
10:55 PM 24.8 °F 20.5 °F 23.0 °F 93% 30.41 in 7.0 mi North 3.5 mph - N/A   Clear
11:15 PM 26.6 °F 22.6 °F 24.8 °F 93% 30.41 in 10.0 mi NNW 3.5 mph - N/A   Scattered Clouds
11:35 PM 23.0 °F - 21.2 °F 93% 30.41 in 7.0 mi Calm Calm - N/A   Clear
11:55 PM 21.2 °F - 21.2 °F 100% 30.41 in 5.0 mi Calm Calm - N/A   Clear